Weather History for Anoka County, MN

Change the Weather History Date:

Sunday, January 6, 2013

  Actual Average Record
Temperature  
Mean Temperature 18 °F -  
Max Temperature 24 °F 22 °F 46 °F (2012)
Min Temperature 12 °F 7 °F -22 °F (2014)
Degree Days  
Heating Degree Days 47    
Moisture  
Dew Point 13 °F    
Average Humidity 82    
Maximum Humidity 93    
Minimum Humidity 59    
Precipitation  
Precipitation 0.00 in - - ()
Sea Level Pressure  
Sea Level Pressure 30.09 in    
Wind  
Wind Speed 9 mph (West)    
Max Wind Speed 14 mph    
Max Gust Speed -    
Visibility 10 miles    
Events      
Averages and records for this station are not official NWS values.
T = Trace of Precipitation, MM = Missing Value Source: NWS Daily Summary

Daily Weather History Graph

Daily Weather History Graph

Search for Another Location

Airport:

Trip Planner

Search our weather history database for the weather conditions in past years. The results will help you decide how hot, cold, wet, or windy it might be!

Date:

Astronomy

Jan. 06, 2013 Rise Set
Actual Time 7:51 AM CST 4:46 PM CST
Civil Twilight 7:17 AM CST 5:20 PM CST
Nautical Twilight 6:40 AM CST 5:57 PM CST
Astronomical Twilight 6:05 AM CST 6:32 PM CST
Moon 2:00 AM CST (1/6) 12:19 PM CST (1/6)
Length of Visible Light 10h 02m
Length of Day
8h 55m
Waning Crescent, 33% of the Moon is Illuminated
Jan 6
Waning Crescent
Jan 11
New
Jan 18
First Quarter
Jan 26
Full
Feb 3
Last Quarter

Hourly Weather History & Observations

Time (CST) Temp. Windchill Dew Point Humidity Pressure Visibility Wind Dir Wind Speed Gust Speed Precip Events Conditions
12:14 AM 21.2 °F 11.7 °F 17.6 °F 86% 29.99 in 10.0 mi West 8.1 mph - N/A   Scattered Clouds
12:34 AM 19.4 °F 8.6 °F 17.6 °F 93% 30.00 in 10.0 mi West 9.2 mph - N/A   Clear
12:54 AM 19.4 °F 7.9 °F 17.6 °F 93% 30.01 in 10.0 mi West 10.4 mph - N/A   Clear
1:14 AM 19.4 °F 7.9 °F 17.6 °F 93% 30.01 in 10.0 mi WNW 10.4 mph - N/A   Clear
1:34 AM 19.4 °F 7.2 °F 15.8 °F 86% 30.02 in 10.0 mi WNW 11.5 mph - N/A   Clear
1:54 AM 17.6 °F 6.4 °F 15.8 °F 93% 30.02 in 10.0 mi West 9.2 mph - N/A   Clear
2:14 AM 17.6 °F 6.4 °F 15.8 °F 93% 30.02 in 10.0 mi West 9.2 mph - N/A   Clear
2:34 AM 17.6 °F 6.4 °F 15.8 °F 93% 30.04 in 10.0 mi West 9.2 mph - N/A   Clear
2:54 AM 17.6 °F 5.7 °F 15.8 °F 93% 30.05 in 10.0 mi West 10.4 mph - N/A   Clear
3:14 AM 17.6 °F 6.4 °F 15.8 °F 93% 30.04 in 10.0 mi West 9.2 mph - N/A   Scattered Clouds
3:33 AM 17.6 °F 5.7 °F 15.8 °F 93% 30.06 in 10.0 mi West 10.4 mph - N/A   Clear
3:54 AM 17.6 °F 5.7 °F 15.8 °F 93% 30.07 in 10.0 mi West 10.4 mph - N/A   Mostly Cloudy
4:14 AM 19.4 °F 7.2 °F 15.8 °F 86% 30.07 in 10.0 mi WNW 11.5 mph - N/A   Overcast
4:33 AM 19.4 °F 6.0 °F 15.8 °F 86% 30.07 in 10.0 mi West 13.8 mph - N/A   Overcast
4:54 AM 17.6 °F 6.4 °F 15.8 °F 93% 30.07 in 10.0 mi West 9.2 mph - N/A   Overcast
5:14 AM 17.6 °F 7.3 °F 15.8 °F 93% 30.07 in 10.0 mi WNW 8.1 mph - N/A   Overcast
5:33 AM 15.8 °F 8.6 °F 14.0 °F 93% 30.08 in 10.0 mi West 4.6 mph - N/A   Scattered Clouds
5:54 AM 15.8 °F 3.4 °F 14.0 °F 93% 30.10 in 10.0 mi West 10.4 mph - N/A   Clear
6:33 AM 15.8 °F 6.1 °F 10.4 °F 79% 30.12 in 10.0 mi WNW 6.9 mph - N/A   Clear
6:45 AM 14.0 °F 3.9 °F 10.4 °F 86% 30.13 in 12.0 mi WNW 6.9 mph - N/A   Partly Cloudy
6:54 AM 14.0 °F 5.1 °F 10.4 °F 86% 30.13 in 10.0 mi WNW 5.8 mph - N/A   Clear
7:50 AM 12.2 °F -0.2 °F 6.8 °F 79% 30.16 in 12.0 mi WNW 9.2 mph - N/A   Clear
8:50 AM 12.2 °F -0.2 °F 6.8 °F 79% 30.17 in 12.0 mi WNW 9.2 mph - N/A   Clear
9:50 AM 15.8 °F 8.6 °F 6.8 °F 68% 30.18 in 12.0 mi NW 4.6 mph - N/A   Clear
10:50 AM 17.6 °F 7.3 °F 8.6 °F 68% 30.20 in 12.0 mi West 8.1 mph - N/A   Partly Cloudy
11:45 AM 19.4 °F - 10.4 °F 68% 30.18 in 12.0 mi Calm Calm - N/A   Partly Cloudy
12:45 PM 21.2 °F 13.6 °F 12.2 °F 68% 30.18 in 12.0 mi West 5.8 mph - N/A   Partly Cloudy
1:45 PM 23.0 °F 18.4 °F 12.2 °F 63% 30.16 in 10.0 mi West 3.5 mph - N/A   Partly Cloudy
2:45 PM 24.8 °F 17.9 °F 12.2 °F 59% 30.18 in 10.0 mi West 5.8 mph - N/A   Partly Cloudy
3:45 PM 24.8 °F 19.1 °F 12.2 °F 59% 30.17 in 10.0 mi SW 4.6 mph - N/A   Partly Cloudy
4:50 PM 23.0 °F - 10.4 °F 59% 30.16 in 10.0 mi Calm Calm - N/A   Clear
5:45 PM 17.6 °F 10.7 °F 10.4 °F 73% 30.16 in 10.0 mi South 4.6 mph - N/A   Clear
6:50 PM 19.4 °F 14.3 °F 12.2 °F 74% 30.16 in 10.0 mi SSW 3.5 mph - N/A   Clear
7:45 PM 15.8 °F 5.1 °F 10.4 °F 79% 30.14 in 10.0 mi SSE 8.1 mph - N/A   Clear
9:14 PM 15.8 °F 5.1 °F 12.2 °F 86% 30.08 in 10.0 mi SSE 8.1 mph - N/A   Clear
9:34 PM 17.6 °F 5.0 °F 12.2 °F 79% 30.06 in 10.0 mi SSE 11.5 mph - N/A   Clear
9:54 PM 17.6 °F 5.7 °F 12.2 °F 79% 30.06 in 10.0 mi SSE 10.4 mph - N/A   Clear
10:34 PM 17.6 °F 5.0 °F 14.0 °F 86% 30.03 in 10.0 mi SSE 11.5 mph - N/A   Clear
10:54 PM 17.6 °F 3.7 °F 14.0 °F 86% 30.03 in 10.0 mi SSE 13.8 mph - N/A   Clear
11:34 PM 17.6 °F 4.3 °F 14.0 °F 86% 30.01 in 10.0 mi SSE 12.7 mph - N/A   Clear
11:54 PM 19.4 °F 6.6 °F 15.8 °F 86% 29.99 in 10.0 mi SSE 12.7 mph - N/A   Clear